SJ-20

导读

实践二十号(SJ-20)是中国于2019年12月27日在文昌航天发射场由长征五号遥三运载火箭发射的新技术试验卫星。该卫星重达8吨,是当时中国发射重量最重、技术含金量最高的通信卫星,基于东方红五号新一代大型卫星平台研制,主要用于验证东五平台关键技术,同时搭载激光通信、Q/V频段通信等十余项前沿试验载荷,可提供高速通信广播服务,填补了中国大型卫星平台型谱空白,满足未来高通量通信卫星发展需求。

基本信息
目录编号:
44910
目录名称:
SJ-20
国际标识:
2019-097A
轨道中心:
EARTH
卫星名称:
SJ-20
卫星全名:
--
卫星状态:
在轨 (已飞行2362 天)
发射日期:
2019-12-27 UTC
国别 :
中国 (CN)
星等 :
--
轨道信息
数据来源 国际轨道数据 AOE轨道数据
星历时间 2026-06-14T14:28:32+0800
17小时前
查看轨道信息
2026-06-15T05:00:00+0800
3小时前
查看轨道信息
半长轴 42163.243km 42163.074km
偏心率 0.001386 0.0013861
轨道倾角 4.911° 4.913°
近地点辐角 54.975° 55.076°
升交点赤经 75.097° 75.091°
平近点角 274.507° 132.891°
近地点 35726.667km 35726.494km
远地点 35843.545km 35843.38km
周期 1436.021分钟 1436.012分钟
每日圈数 1.002771 1.002777
详细信息
使用方式:
暂无
2D轨道图
3D轨道图
轨道高度分析图
轨道倾角分析图
轨道综合分析图
查看轨道综合分析图